Wetterdaten: Montag, 15.12.2014
Datum Zeit Temp. A. Feuchte A. Luftdruck Regen Wind Richtung Richtung Sonnenschein ET UV Solar Taupunkt Windchill Windben Empfang
15.12.2014 00:00 1,0 C 81 % 1019,0 hPa 0,0 l/m 0,0 km/h (0 Bft) S 180 0 min 0,000 mm 0,0 UV-I 0 W/m -1,9 C 1,0 C 0,0 km/h (0 Bft) 0,00 %
15.12.2014 01:00 0,4 C 81 % 1019,1 hPa 0,0 l/m 0,0 km/h (0 Bft) S 180 0 min 0,000 mm 0,0 UV-I 0 W/m -2,5 C 0,4 C 0,0 km/h (0 Bft) 0,00 %
15.12.2014 02:00 0,0 C 83 % 1018,5 hPa 0,0 l/m 0,0 km/h (0 Bft) W 260 0 min 0,000 mm 0,0 UV-I 0 W/m -2,5 C 0,0 C 0,0 km/h (0 Bft) 0,00 %
15.12.2014 03:00 0,1 C 83 % 1019,1 hPa 0,0 l/m 0,0 km/h (0 Bft) W 270 0 min 0,000 mm 0,0 UV-I 0 W/m -2,4 C 0,1 C 0,0 km/h (0 Bft) 0,00 %
15.12.2014 04:00 0,5 C 82 % 1018,0 hPa 0,0 l/m 0,0 km/h (0 Bft) S 180 0 min 0,000 mm 0,0 UV-I 0 W/m -2,2 C 0,5 C 0,0 km/h (0 Bft) 0,00 %
15.12.2014 05:00 0,8 C 83 % 1018,0 hPa 0,0 l/m 0,0 km/h (0 Bft) S-SW 195 0 min 0,000 mm 0,0 UV-I 0 W/m -1,8 C 0,8 C 0,0 km/h (0 Bft) 0,00 %
15.12.2014 06:00 0,3 C 83 % 1018,5 hPa 0,0 l/m 0,0 km/h (0 Bft) S-SW 210 0 min 0,000 mm 0,0 UV-I 0 W/m -2,2 C 0,3 C 0,0 km/h (0 Bft) 0,00 %
15.12.2014 07:00 0,3 C 83 % 1018,5 hPa 0,0 l/m 0,0 km/h (0 Bft) S 180 0 min 0,000 mm 0,0 UV-I 0 W/m -2,2 C 0,3 C 0,0 km/h (0 Bft) 0,00 %
15.12.2014 08:00 -0,2 C 83 % 1019,2 hPa 0,0 l/m 0,0 km/h (0 Bft) S 190 0 min 0,000 mm 0,0 UV-I 0 W/m -2,7 C -0,2 C 0,0 km/h (0 Bft) 0,00 %
15.12.2014 09:00 0,8 C 83 % 1019,4 hPa 0,0 l/m 0,0 km/h (0 Bft) W 260 0 min 0,000 mm 0,0 UV-I 39 W/m -1,8 C 0,8 C 0,0 km/h (0 Bft) 0,00 %
15.12.2014 10:00 1,3 C 82 % 1019,3 hPa 0,0 l/m 0,0 km/h (0 Bft) W-SW 255 0 min 0,000 mm 1,0 UV-I 70 W/m -1,4 C 1,3 C 0,0 km/h (0 Bft) 0,00 %
15.12.2014 11:00 2,4 C 82 % 1019,2 hPa 0,0 l/m 0,0 km/h (0 Bft) S 180 0 min 0,000 mm 1,0 UV-I 102 W/m -0,4 C 2,4 C 0,0 km/h (0 Bft) 0,00 %
15.12.2014 12:00 3,2 C 82 % 1018,3 hPa 0,0 l/m 1,4 km/h (1 Bft) S-SO 150 0 min 0,000 mm 1,0 UV-I 129 W/m 0,4 C 3,2 C 4,0 km/h (1 Bft) 0,00 %
15.12.2014 13:00 4,1 C 79 % 1017,8 hPa 0,0 l/m 0,0 km/h (0 Bft) S-SO 160 0 min 0,000 mm 1,0 UV-I 116 W/m 0,8 C 4,1 C 0,0 km/h (0 Bft) 0,00 %
15.12.2014 14:00 4,6 C 77 % 1017,4 hPa 0,0 l/m 0,0 km/h (0 Bft) S-SW 200 0 min 0,000 mm 1,0 UV-I 100 W/m 0,9 C 4,6 C 0,0 km/h (0 Bft) 0,00 %
15.12.2014 14:30 4,9 C 76 % 1017,8 hPa 0,0 l/m 0,0 km/h (0 Bft) S 190 0 min 0,000 mm 1,0 UV-I 69 W/m 1,0 C 4,9 C 0,0 km/h (0 Bft) 0,00 %
15.12.2014 15:00 4,5 C 78 % 1017,9 hPa 0,0 l/m 0,0 km/h (0 Bft) N 359 0 min 0,000 mm 1,0 UV-I 46 W/m 1,0 C 4,5 C 0,0 km/h (0 Bft) 0,00 %
15.12.2014 16:00 3,8 C 81 % 1018,4 hPa 0,0 l/m 0,0 km/h (0 Bft) S 180 0 min 0,000 mm 0,0 UV-I 0 W/m 0,8 C 3,8 C 0,0 km/h (0 Bft) 0,00 %
15.12.2014 17:00 3,1 C 84 % 1018,5 hPa 0,0 l/m 0,0 km/h (0 Bft) S 180 0 min 0,000 mm 0,0 UV-I 0 W/m 0,7 C 3,1 C 0,0 km/h (0 Bft) 0,00 %
15.12.2014 18:00 3,1 C 84 % 1018,1 hPa 0,0 l/m 0,0 km/h (0 Bft) S 180 0 min 0,000 mm 0,0 UV-I 0 W/m 0,7 C 3,1 C 0,0 km/h (0 Bft) 0,00 %
15.12.2014 19:00 2,5 C 84 % 1018,2 hPa 0,0 l/m 0,0 km/h (0 Bft) S 180 0 min 0,000 mm 0,0 UV-I 0 W/m 0,1 C 2,5 C 0,0 km/h (0 Bft) 0,00 %
15.12.2014 20:00 2,5 C 85 % 1018,2 hPa 0,0 l/m 0,0 km/h (0 Bft) S 180 0 min 0,000 mm 0,0 UV-I 0 W/m 0,2 C 2,5 C 0,0 km/h (0 Bft) 0,00 %
15.12.2014 21:00 2,5 C 85 % 1017,9 hPa 0,0 l/m 0,0 km/h (0 Bft) S 180 0 min 0,000 mm 0,0 UV-I 0 W/m 0,2 C 2,5 C 0,0 km/h (0 Bft) 0,00 %
15.12.2014 22:00 2,6 C 85 % 1017,1 hPa 0,0 l/m 0,0 km/h (0 Bft) S 180 0 min 0,000 mm 0,0 UV-I 0 W/m 0,3 C 2,6 C 0,0 km/h (0 Bft) 0,00 %
15.12.2014 23:00 2,5 C 85 % 1017,9 hPa 0,0 l/m 0,0 km/h (0 Bft) S-SW 200 0 min 0,000 mm 0,0 UV-I 0 W/m 0,2 C 2,5 C 0,0 km/h (0 Bft) 0,00 %
_ Min-Zeit 08:00 14:30 22:00 - 00:00 - - - - - - 08:00 08:00 00:00 00:00
Minimum _ -0,2 C 76 % 1017,1 hPa - 0,0 km/h (0 Bft) - - - - - - -2,7 C -0,2 C 0,0 km/h (0 Bft) 0,00 %
_ Max-Zeit 14:30 20:00 09:00 00:00 12:00 - - 00:00 00:00 10:00 12:00 14:30 14:30 12:00 00:00
Maximum _ 4,9 C 85 % 1019,4 hPa 0,0 l/m 1,4 km/h
S-SO (1 Bft)
- - 0 min 0,000 mm 1,0 UV-I 129 W/m 1,0 C 4,9 C 4,0 km/h
S-SO (1 Bft)
0,00 %
Durchschnitt _ 2,0 C 82 % 1018,4 hPa #0,0 l/m 0,1 km/h (0 Bft) S-SO - #0 min. #0,000 mm 1,0 UV-I 88 W/m -0,7 C 2,0 C 0,2 km/h (0 Bft) 0,00 %